Location: Musselshell
(46.5176°N, 108.0911°W)
Time: 09:05:56
(UTC+00:00)

YUBILEINY - Pass Details

Date: 09 July 2022
Orbit: 1478 x 1509 km, 82.5° (Epoch: 13 August)

Event Time Altitude Azimuth Distance (km) Brightness Sun altitude
Rises 08:54:54 0° 354° (N) 4,648 ? -17.7°
Reaches altitude 10° 08:58:31 10° 7° (N) 3,660 ? -17.5°
Maximum altitude 09:05:37 26° 61° (ENE) 2,592 ? -16.9°
Drops below altitude 10° 09:12:38 10° 115° (ESE) 3,626 ? -16.4°
Sets 09:16:10 0° 128° (SE) 4,598 ? -16.1°
